Terminal Aerodrome Forecast
Issued by NWS

Home | Current Version | Previous Version | Text Only | Print | Product List | Glossary On
Versions: 1 2 3 4 5 6 7 8 9 10 11 12 13 14 15 16 17 18
000
FTAK31 PAJN 041032 AAC
TAFAKT
TAF AMD
PAKT 041032Z 0411/0506 VRB04KT P6SM -SHRA SCT003 SCT030 OVC070
      TEMPO 0411/0415 3SM -SHRA BR BKN003 OVC070
     FM041500 14008KT 6SM -SHRA BR BKN020 OVC040
     FM050400 15007KT P6SM VCSH BKN025 OVC040=

USA.gov is the U.S. government's official web portal to all federal, state and local government web resources and services.